Wind_Speed
54 60 65 68 69 80 86 86 83 78 77 76 83 87 88 89 91 92 85 89 91 89 88 87 78 78 75 78 78 82 79 76 77 71 70 69 71 75 73 68 63 60 56 56 54
47 56 61 65 68 74 81 92 97 85 85 81 77 81 84 88 88 88 91 93 92 92 92 92 91 87 85 85 80 80 73 71 75 80 78 74 73 73 72 68 73 67 64 60 59
31 40 53 63 66 70 75 83 97 95 91 91 88 87 82 80 81 82 88 92 94 94 93 93 90 93 89 90 83 80 71 70 73 76 78 80 76 73 74 70 73 73 71 73 71
25 29 38 50 59 65 71 76 83 90 98 102 102 95 97 92 84 76 76 81 87 94 95 93 88 89 86 87 90 90 79 76 77 80 81 78 82 81 77 72 71 72 73 72 77
35 35 37 41 49 60 66 70 76 82 85 91 100 103 108 101 98 99 95 92 91 92 89 89 90 90 87 87 90 82 82 88 84 82 77 76 76 75 75 71 67 71 74 75 79
43 46 48 49 51 54 59 66 72 78 84 88 89 97 103 100 109 109 105 103 104 105 99 92 89 94 87 87 89 85 89 86 90 85 81 78 73 70 67 70 70 71 69 70 73
46 51 56 59 62 64 65 67 70 74 78 83 89 93 93 99 108 110 110 110 109 108 108 108 106 102 93 95 88 89 93 89 79 73 76 78 64 62 69 70 69 71 70 73 74
44 51 56 60 67 72 75 77 77 78 80 82 84 87 87 100 102 106 109 110 109 108 105 110 110 104 101 97 88 90 95 90 78 80 79 90 66 71 68 71 73 73 76 77 75
44 47 48 53 65 72 78 85 86 87 87 87 88 87 86 93 98 104 105 103 108 101 105 109 114 109 106 103 100 97 89 84 77 78 85 92 73 74 76 80 80 79 80 78 79
47 47 49 53 52 61 73 83 89 95 96 96 96 92 94 94 94 96 100 105 104 107 107 107 109 112 111 108 100 102 98 90 80 89 94 94 87 81 85 87 82 81 80 81 79
54 56 61 63 59 56 66 79 89 94 99 106 105 103 100 101 98 96 97 98 104 108 110 109 109 101 90 92 95 102 102 96 95 96 100 93 91 87 83 86 88 85 87 86 87
59 62 66 65 61 63 67 77 87 96 93 106 107 109 108 110 102 100 101 99 99 102 109 114 106 93 94 96 97 98 97 95 97 97 99 95 96 90 84 84 86 85 85 83 84
63 66 70 67 66 71 81 75 75 79 83 97 102 105 111 111 106 108 107 105 103 101 102 104 91 95 99 102 96 92 87 84 88 96 95 94 94 83 83 84 81 81 79 79 80
65 73 70 66 70 78 82 75 65 63 71 80 94 100 104 110 109 113 114 111 109 106 105 96 88 89 94 98 94 91 87 86 87 89 82 88 76 68 76 74 75 73 68 67 65
68 73 67 64 73 81 76 67 52 48 57 69 79 85 91 96 106 113 115 115 113 112 111 94 91 95 93 85 92 80 83 86 86 86 84 75 67 61 69 67 66 63 58 56 52
70 72 65 67 73 75 65 51 44 40 45 54 63 75 82 88 92 99 106 113 115 117 112 102 101 102 91 88 91 81 82 86 85 83 80 65 66 52 57 57 51 49 47 45 44
72 72 64 69 73 67 63 51 42 34 35 44 52 61 71 83 92 96 97 103 110 113 109 108 109 102 97 93 89 84 82 84 83 80 61 56 60 42 46 43 40 38 32 28 36
73 72 68 72 75 68 58 48 39 37 31 33 42 51 58 70 84 91 94 98 100 106 104 107 107 104 100 98 96 89 86 83 75 69 56 52 41 42 41 34 30 30 26 29 28
74 72 69 72 76 68 58 41 37 33 31 29 33 43 49 53 70 84 93 93 97 93 90 101 103 105 105 105 99 93 92 75 76 72 66 56 47 41 35 27 25 30 25 21 23
72 75 73 72 79 74 56 46 36 30 27 26 26 33 39 47 55 60 78 89 91 86 82 97 95 106 108 102 96 100 88 90 82 75 65 56 48 44 36 29 26 23 21 21 23
69 75 74 75 77 76 59 46 39 32 27 23 22 24 28 38 47 52 59 70 82 86 86 86 88 98 101 100 101 96 94 92 83 77 68 58 50 51 41 29 24 17 18 20 21
72 75 75 75 76 73 65 50 44 35 28 23 21 21 24 29 37 45 49 58 67 75 83 83 84 94 92 93 94 95 91 89 86 78 70 63 55 50 36 24 25 22 29 22 21
72 75 77 75 77 81 75 58 44 36 28 23 17 15 16 21 27 33 40 46 50 54 65 70 78 89 87 90 90 91 90 88 85 82 75 67 60 52 48 34 21 21 22 23 19
73 74 79 80 78 78 81 70 49 39 31 25 18 14 12 14 20 26 33 38 44 46 51 58 67 78 85 90 86 85 90 90 87 79 69 64 62 59 48 30 23 23 21 19 22
75 74 75 77 80 80 80 73 50 42 33 28 19 14 11 8 12 17 24 29 35 42 45 47 54 63 72 83 81 82 82 81 77 76 66 60 66 56 50 38 33 26 16 17 21
72 74 77 78 79 78 77 78 57 44 36 30 23 16 11 9 7 8 14 21 29 34 37 41 45 51 57 65 71 71 68 66 66 67 65 68 63 62 56 42 34 31 19 18 21
70 75 77 77 77 77 76 77 65 48 39 33 29 23 15 9 6 6 9 17 20 24 29 35 39 42 48 55 63 68 59 60 57 59 64 63 60 57 38 38 32 33 22 20 26
Wind_Direction
244 240 237 236 234 227 231 231 229 238 243 241 240 239 240 241 242 241 244 245 243 242 242 241 245 242 244 246 246 251 255 253 254 253 253 254 255 261 259 259 268 270 269 278 279
250 244 242 240 239 236 236 234 233 235 232 233 236 239 243 242 244 242 244 244 245 247 247 243 244 246 248 247 249 252 249 251 253 254 254 255 259 261 262 263 264 270 272 273 276
252 248 246 241 240 239 238 237 237 236 236 234 238 234 235 239 246 243 245 247 246 247 247 247 246 248 249 247 251 251 248 250 251 251 253 253 255 260 263 267 267 269 271 277 272
265 259 251 247 245 244 242 241 238 239 239 240 243 239 240 243 236 240 245 246 248 248 249 249 251 248 248 249 252 250 249 251 252 251 252 253 255 259 265 269 272 274 273 274 275
266 260 256 251 248 246 246 245 244 242 241 242 240 241 242 241 244 241 243 241 244 249 250 250 249 252 248 247 248 251 251 250 250 253 256 257 261 262 266 268 270 270 272 274 275
272 268 263 256 252 248 247 246 245 244 243 243 244 243 241 240 241 245 242 244 246 247 248 247 248 250 246 248 252 252 249 250 252 254 257 261 261 264 266 265 267 268 269 272 275
275 270 264 261 257 251 248 246 245 244 243 243 243 242 242 243 243 245 244 244 246 249 249 248 247 250 251 250 253 251 250 250 252 255 259 261 259 263 261 265 266 268 270 274 278
285 281 276 269 262 257 253 249 246 245 244 243 242 242 241 242 242 243 245 244 245 246 246 247 248 250 250 249 249 251 252 252 257 258 259 258 254 261 263 263 263 266 269 273 277
288 284 278 280 269 263 258 253 249 247 244 244 242 241 239 241 240 241 241 243 243 242 244 247 249 248 248 248 247 254 255 255 253 252 250 257 256 258 261 262 264 267 271 274 275
306 303 297 297 284 267 261 256 252 249 246 245 243 240 238 239 240 240 241 241 240 242 243 244 245 247 249 250 251 253 254 250 249 249 251 256 255 256 259 261 262 267 270 273 276
312 314 315 310 300 284 268 258 254 251 248 246 243 241 239 238 237 239 239 239 239 240 242 243 244 247 250 248 247 250 249 249 250 252 253 256 257 257 260 259 262 268 270 272 272
318 317 316 310 301 289 279 265 256 254 249 249 244 243 241 240 238 238 239 239 239 239 239 241 243 245 245 247 248 248 249 250 252 253 255 256 256 259 262 263 264 267 271 270 272
321 322 322 316 309 300 286 277 272 266 260 252 251 246 244 242 241 239 238 239 239 239 239 240 241 243 244 246 247 249 250 248 249 251 254 257 256 261 264 266 268 268 270 274 274
327 328 324 318 313 304 298 298 289 271 258 251 248 247 245 245 244 241 239 239 239 239 239 238 239 241 243 244 247 246 248 247 249 251 254 256 255 263 261 264 265 267 271 274 279
330 329 326 323 321 309 308 303 294 276 260 250 248 246 243 243 241 242 242 241 239 240 240 237 236 239 239 241 244 243 245 245 246 249 252 256 259 257 262 262 265 269 273 276 278
333 333 331 334 330 318 316 311 301 281 265 257 251 246 242 241 240 240 239 240 239 239 240 240 237 237 238 239 242 240 242 244 245 248 251 254 256 258 258 259 264 274 275 273 272
336 338 339 342 339 332 326 322 310 292 268 255 251 242 239 237 237 238 237 236 238 239 238 237 240 239 238 238 239 240 242 244 246 250 252 252 252 252 257 267 268 267 267 264 269
339 344 345 347 348 342 333 327 316 307 290 264 253 249 241 236 233 235 236 236 236 238 236 237 238 240 239 240 238 237 240 244 249 251 247 247 255 245 259 261 255 259 267 269 281
342 348 352 351 352 349 339 332 324 314 300 284 265 250 248 243 238 232 234 236 238 238 233 234 236 238 239 239 239 240 240 243 244 246 246 248 247 246 249 255 259 268 273 272 285
345 352 356 355 355 354 346 339 335 326 311 294 274 262 250 242 241 237 235 236 239 239 234 231 230 235 238 238 238 240 242 240 240 243 245 246 247 250 252 256 263 266 271 281 291
351 356 358 358 356 358 355 347 341 334 323 312 290 271 255 247 242 237 234 236 235 237 237 233 228 232 233 234 237 235 237 240 241 240 242 242 245 248 248 249 261 267 278 279 285
355 356 360 1 359 2 359 357 349 343 339 325 306 287 268 253 244 243 236 232 232 234 235 232 230 229 230 230 231 233 234 234 237 238 238 239 240 246 246 242 241 259 271 278 278
350 356 0 2 4 5 4 359 357 355 354 345 332 308 277 260 253 244 238 239 240 237 234 234 229 227 228 228 227 228 228 230 233 232 231 232 235 243 245 236 233 247 254 271 250
351 355 358 3 6 5 8 3 360 0 5 2 355 331 306 274 249 240 237 233 228 230 231 227 227 225 225 226 226 225 227 228 228 230 228 230 229 232 237 224 222 239 243 250 227
353 356 358 2 4 5 6 6 2 2 5 7 4 354 327 292 255 237 232 231 229 227 226 223 220 222 221 222 221 220 224 226 227 226 229 226 229 232 231 234 230 238 239 235 220
354 356 358 1 3 5 4 8 5 5 5 5 360 1 354 312 282 248 229 222 224 223 221 216 214 213 216 217 216 217 218 221 221 223 224 222 224 227 230 230 229 235 228 218 211
356 358 358 359 1 2 5 7 8 6 6 6 1 355 351 335 310 260 225 219 213 213 212 206 203 203 205 207 207 207 209 210 209 212 215 222 223 226 218 219 215 224 225 209 212
Height
10723 10727 10730 10733 10737 10742 10746 10749 10752 10754 10757 10761 10765 10768 10772 10778 10784 10796 10804 10791 10802 10811 10816 10821 10825 10824 10827 10834 10834 10834 10863 10870 10866 10865 10866 10855 10856 10858 10863 10871 10870 10862 10874 10870 10872
10714 10715 10718 10721 10724 10728 10730 10732 10736 10739 10743 10746 10748 10752 10758 10764 10769 10783 10774 10780 10787 10793 10803 10805 10810 10808 10818 10822 10824 10829 10849 10856 10848 10849 10854 10847 10845 10850 10846 10865 10856 10862 10862 10864 10865
10704 10703 10705 10706 10709 10712 10714 10716 10719 10723 10726 10730 10732 10736 10740 10750 10753 10762 10763 10767 10771 10777 10783 10786 10791 10794 10804 10804 10810 10816 10841 10835 10836 10835 10835 10840 10837 10837 10841 10850 10849 10853 10854 10849 10855
10696 10695 10694 10694 10696 10697 10698 10699 10701 10704 10707 10710 10712 10717 10723 10732 10737 10746 10748 10749 10750 10757 10765 10771 10775 10778 10786 10791 10790 10799 10820 10822 10820 10818 10820 10828 10826 10833 10835 10842 10839 10839 10841 10844 10841
10688 10686 10684 10683 10683 10682 10682 10682 10683 10685 10687 10689 10691 10696 10702 10716 10726 10720 10724 10729 10733 10738 10747 10750 10756 10758 10772 10773 10769 10794 10801 10797 10804 10802 10812 10813 10819 10825 10828 10827 10827 10825 10826 10831 10834
10675 10673 10672 10671 10668 10666 10665 10664 10664 10665 10665 10668 10671 10676 10683 10700 10692 10687 10705 10713 10716 10720 10727 10727 10735 10732 10749 10757 10763 10776 10773 10785 10787 10799 10802 10799 10808 10813 10816 10809 10815 10813 10815 10820 10823
10660 10657 10654 10651 10648 10647 10645 10644 10643 10644 10645 10647 10650 10654 10667 10674 10665 10668 10681 10692 10696 10703 10702 10703 10707 10715 10737 10738 10751 10754 10754 10765 10785 10791 10792 10774 10801 10804 10795 10797 10803 10803 10807 10809 10813
10646 10641 10635 10632 10628 10624 10622 10621 10621 10622 10622 10625 10627 10633 10647 10634 10644 10648 10649 10666 10675 10675 10681 10679 10685 10700 10709 10721 10731 10734 10734 10760 10779 10777 10779 10739 10803 10784 10787 10786 10787 10793 10795 10799 10804
10631 10625 10619 10613 10604 10600 10597 10593 10596 10597 10597 10599 10601 10610 10617 10611 10617 10621 10628 10639 10647 10652 10655 10658 10660 10675 10687 10703 10713 10725 10738 10748 10761 10755 10742 10723 10784 10782 10772 10770 10778 10782 10784 10790 10788
10614 10607 10600 10591 10583 10576 10570 10564 10563 10565 10567 10569 10571 10582 10581 10583 10590 10597 10603 10610 10621 10625 10629 10635 10636 10647 10668 10684 10712 10710 10703 10726 10750 10730 10724 10728 10747 10765 10764 10759 10766 10770 10772 10773 10774
10597 10588 10577 10567 10558 10552 10542 10533 10529 10531 10535 10536 10538 10546 10553 10553 10563 10569 10574 10581 10594 10603 10607 10610 10614 10643 10670 10659 10667 10677 10696 10711 10721 10711 10702 10724 10729 10742 10752 10751 10751 10757 10758 10757 10762
10581 10571 10560 10547 10536 10524 10515 10500 10490 10491 10507 10496 10503 10514 10519 10518 10542 10549 10550 10560 10567 10576 10578 10582 10613 10637 10627 10641 10647 10659 10676 10694 10692 10690 10681 10705 10711 10723 10741 10740 10737 10743 10741 10747 10745
10567 10553 10539 10525 10510 10497 10478 10473 10471 10470 10474 10465 10469 10480 10480 10494 10516 10519 10525 10532 10541 10550 10555 10569 10604 10604 10610 10615 10631 10647 10662 10668 10673 10661 10675 10688 10698 10721 10725 10721 10727 10728 10730 10729 10735
10553 10539 10522 10505 10490 10467 10446 10439 10434 10432 10431 10433 10423 10435 10454 10467 10487 10485 10495 10507 10515 10525 10529 10559 10577 10587 10588 10597 10613 10634 10637 10645 10651 10650 10675 10668 10695 10714 10700 10709 10709 10710 10720 10720 10719
10538 10523 10507 10489 10466 10436 10425 10410 10403 10400 10393 10397 10400 10408 10417 10432 10441 10455 10467 10481 10495 10496 10503 10553 10559 10558 10567 10587 10588 10619 10616 10625 10631 10642 10652 10670 10683 10695 10686 10691 10695 10701 10708 10709 10709
10527 10507 10490 10471 10446 10418 10400 10389 10381 10377 10375 10374 10380 10385 10393 10402 10414 10421 10438 10449 10459 10469 10494 10519 10529 10529 10559 10567 10574 10590 10599 10606 10617 10631 10643 10663 10669 10685 10673 10678 10688 10693 10696 10698 10695
10514 10494 10474 10454 10428 10403 10383 10373 10363 10359 10356 10355 10355 10358 10368 10379 10386 10391 10403 10413 10428 10440 10478 10494 10495 10519 10536 10549 10562 10574 10580 10590 10605 10621 10654 10641 10663 10674 10655 10675 10681 10681 10685 10688 10683
10500 10482 10459 10438 10415 10394 10374 10361 10352 10344 10341 10341 10340 10341 10347 10354 10361 10372 10380 10391 10403 10414 10450 10462 10482 10502 10516 10528 10538 10557 10564 10577 10598 10615 10632 10628 10663 10653 10656 10667 10671 10670 10677 10677 10676
10487 10471 10450 10431 10411 10386 10366 10354 10343 10335 10329 10327 10326 10327 10330 10341 10340 10349 10357 10368 10376 10399 10433 10439 10467 10471 10483 10504 10520 10542 10548 10588 10585 10595 10608 10625 10638 10645 10649 10657 10662 10662 10665 10668 10668
10479 10460 10440 10420 10401 10383 10361 10345 10335 10327 10320 10316 10315 10314 10318 10323 10324 10338 10343 10352 10364 10380 10399 10409 10445 10447 10463 10486 10512 10518 10550 10548 10569 10582 10601 10616 10627 10633 10642 10651 10654 10657 10658 10661 10661
10477 10457 10438 10418 10400 10378 10357 10341 10329 10318 10311 10308 10304 10304 10306 10308 10313 10319 10327 10337 10347 10361 10375 10395 10420 10425 10438 10465 10482 10504 10520 10533 10556 10571 10591 10605 10618 10620 10633 10644 10648 10651 10652 10655 10655
10472 10452 10435 10418 10398 10374 10354 10338 10325 10314 10306 10301 10298 10296 10297 10299 10302 10306 10315 10319 10325 10338 10351 10371 10399 10406 10424 10443 10460 10483 10506 10518 10533 10562 10578 10593 10604 10613 10625 10638 10644 10648 10647 10648 10651
10465 10449 10432 10414 10396 10371 10352 10335 10326 10313 10305 10297 10293 10291 10290 10291 10295 10300 10306 10311 10321 10333 10340 10356 10378 10390 10408 10423 10441 10462 10486 10504 10522 10536 10561 10581 10595 10605 10613 10627 10638 10643 10645 10643 10647
10461 10444 10423 10406 10390 10374 10354 10338 10325 10314 10305 10298 10292 10288 10285 10286 10287 10290 10295 10301 10306 10315 10325 10336 10353 10369 10388 10403 10425 10450 10463 10485 10506 10531 10556 10575 10580 10592 10605 10618 10630 10635 10638 10642 10644
10455 10440 10425 10411 10389 10373 10358 10343 10329 10316 10307 10299 10293 10288 10285 10283 10283 10285 10288 10293 10299 10302 10311 10325 10338 10351 10370 10388 10414 10437 10455 10476 10503 10528 10552 10568 10571 10588 10598 10610 10618 10627 10633 10638 10641
10454 10439 10421 10407 10392 10377 10364 10347 10330 10320 10311 10302 10295 10289 10286 10284 10281 10283 10285 10288 10290 10296 10306 10317 10330 10343 10361 10378 10406 10431 10452 10475 10502 10525 10544 10549 10564 10574 10586 10603 10612 10621 10627 10633 10637
10452 10438 10424 10411 10396 10381 10366 10349 10336 10322 10313 10304 10298 10292 10287 10284 10281 10281 10280 10283 10288 10296 10304 10313 10325 10340 10354 10372 10395 10427 10453 10474 10499 10516 10532 10544 10560 10568 10588 10596 10609 10615 10622 10627 10632